Погода в Талом

Россия / Республика Коми     64°36′50″N   55°41′18″E
темп.,
°C
ветер,
м/с
пор.,
м/с
влажн.,
%
обл.,
%
осадки,
мм/ч
давл.,
гПа
погр.,
м
7 августа, вс
вс700:00+18юз22770 0.0 101842
03:00+17юз24760 0.0 101976
06:00+22юз36590 0.0 1018223
09:00+27юз36410 0.0 10171592
12:00+29юз57360 0.0 10172290
15:00+29юз57310 0.0 10152580
18:00+26ююз38415 0.0 1014451
21:00+21ююз38590 0.0 1014136
8 августа, пн
пн800:00+19ююз39670 0.0 1015150
03:00+17ююз310741 0.0 1014187
06:00+21ююз3106019 0.0 1014379
09:00+25зюз47526 0.0 10151101
12:00+22зсз467060 0.8 1016886
15:00+21ссз4554100 1.0 1017943
18:00+20ссз255374 0.0 1018470
21:00+15с227134 0.0 102026
9 августа, вт
вт900:00+13юз007867 0.0 102011
03:00+15з2370100 0.0 102191
06:00+17ссз36576 0.0 1022521
09:00+19сз354355 0.0 10231562
12:00+21сз343538 0.0 10232164
15:00+21ссз443364 0.0 10222311
18:00+18с264830 0.0 1023496
21:00+12ссв236699 0.0 102457
10 августа, ср
ср1000:00+10св2373100 0.0 102566
03:00+8всв11777 0.0 102513
06:00+14св1254100 0.0 1025237
09:00+17св2240100 0.0 10241240
12:00+19св2235100 0.0 10231712
15:00+20всв2234100 0.0 10221950
18:00+16св1151100 0.0 102030
21:00+11юв116660 0.0 102010
11 августа, чт
чт1100:00+10всв11713 0.0 101910
03:00+8св11750 0.0 101812
06:00+14вюв12551 0.0 1018187
09:00+20ссв12400 0.0 10171201
12:00+22св11322 0.0 10152101
15:00+22ссв113125 0.0 10142299
18:00+19ю244839 0.0 1013117
21:00+12ю267531 0.0 1012107